Location: Newark
(27.9675°N, 86.8869°E)
Time: 14:29:04
(UTC+00:00)

Vanguard 3 - Pass Details

Date: 24 October 2019
Orbit: 508 x 3263 km, 33.3° (Epoch: 11 November)

Event Time Altitude Azimuth Distance (km) Brightness Sun altitude
Rises 18:42:22 0° 286° (WNW) 2,741 - -70.7°
Reaches altitude 10° 18:44:46 10° 295° (WNW) 1,745 - -70.3°
Maximum altitude 18:48:15 37° 5° (N) 799 - -69.9°
Drops below altitude 10° 18:51:56 10° 74° (ENE) 1,850 - -69.3°
Sets 18:54:34 0° 83° (E) 2,938 - -68.9°
